Weather History for KFBG - February, 2014

Change the Weather History Date:

Saturday, February 22, 2014

  Actual Average Record
Temperature  
Mean Temperature 50 °F -  
Max Temperature 64 °F 56 °F 73 °F (1997)
Min Temperature 36 °F 35 °F 24 °F (1999)
Degree Days  
Heating Degree Days 15    
Moisture  
Dew Point 31 °F    
Average Humidity 51    
Maximum Humidity 97    
Minimum Humidity 20    
Precipitation  
Precipitation 0.00 in - - ()
Sea Level Pressure  
Sea Level Pressure 30.13 in    
Wind  
Wind Speed 3 mph (North)    
Max Wind Speed 9 mph    
Max Gust Speed -    
Visibility 10 miles    
Events Rain    
Averages and records for this station are not official NWS values.
T = Trace of Precipitation, MM = Missing Value Source: NWS Daily Summary

Daily Weather History Graph

Daily Weather History Graph

Search for Another Location

Airport or City:

Trip Planner

Search our weather history database for the weather conditions in past years. The results will help you decide how hot, cold, wet, or windy it might be!

Date:

Astronomy

Feb. 22, 2014 Rise Set
Actual Time 6:53 AM EST 6:04 PM EST
Civil Twilight 6:28 AM EST 6:30 PM EST
Nautical Twilight 5:58 AM EST 7:00 PM EST
Astronomical Twilight 5:29 AM EST 7:29 PM EST
Moon 12:42 AM EST (2/22) 11:20 AM EST (2/22)
Length of Visible Light 12h 02m
Length of Day
11h 11m
Waning Gibbous, 50% of the Moon is Illuminated
Feb 22
Waning Gibbous
Feb 22
Last Quarter
Mar 1
New
Mar 8
First Quarter
Mar 16
Full

Hourly Weather History & Observations

Time (EST) Temp. Windchill Dew Point Humidity Pressure Visibility Wind Dir Wind Speed Gust Speed Precip Events Conditions
12:58 AM 45.1 °F 43.7 °F 39.2 °F 80% 30.05 in 10.0 mi NW 3.5 mph - N/A   Clear
1:58 AM 44.8 °F 42.4 °F 37.6 °F 76% 30.06 in 10.0 mi NNW 4.6 mph - N/A   Clear
2:58 AM 44.6 °F 43.1 °F 32.5 °F 63% 30.06 in 10.0 mi NNW 3.5 mph - N/A   Clear
3:58 AM 42.6 °F 39.9 °F 33.3 °F 69% 30.08 in 10.0 mi North 4.6 mph - N/A   Clear
4:58 AM 40.6 °F - 33.3 °F 75% 30.11 in 10.0 mi SSW 1.2 mph - N/A   Clear
5:58 AM 38.7 °F - 32.4 °F 78% 30.13 in 10.0 mi Calm Calm - N/A   Clear
6:58 AM 36.7 °F 34.1 °F 35.8 °F 97% 30.15 in 10.0 mi North 3.5 mph - N/A   Clear
7:58 AM 37.0 °F - 35.4 °F 94% 30.18 in 10.0 mi North 1.2 mph - N/A   Clear
8:58 AM 46.4 °F - 36.7 °F 69% 30.20 in 10.0 mi Calm Calm - 0.00 in   Clear
9:58 AM 55.0 °F - 28.8 °F 37% 30.21 in 10.0 mi NNE 4.6 mph - 0.00 in   Clear
10:58 AM 59.0 °F - 26.1 °F 28% 30.21 in 10.0 mi NNE 9.2 mph - N/A   Partly Cloudy
11:58 AM 60.4 °F - 27.9 °F 29% 30.18 in 10.0 mi Variable 4.6 mph - 0.00 in Rain Light Rain
12:11 PM 60.8 °F - 26.6 °F 27% 30.17 in 10.0 mi Variable 4.6 mph - N/A   Clear
12:58 PM 62.2 °F - 28.2 °F 28% 30.16 in 10.0 mi Variable 3.5 mph - 0.00 in   Clear
1:58 PM 63.3 °F - 26.6 °F 25% 30.14 in 10.0 mi Variable 3.5 mph - N/A   Clear
2:58 PM 64.2 °F - 25.5 °F 23% 30.13 in 10.0 mi ENE 4.6 mph - N/A   Clear
3:58 PM 63.9 °F - 22.1 °F 20% 30.11 in 10.0 mi SSE 4.6 mph - N/A   Clear
4:58 PM 63.1 °F - 22.1 °F 21% 30.11 in 10.0 mi Variable 3.5 mph - 0.00 in   Clear
5:58 PM 60.1 °F - 25.7 °F 27% 30.11 in 10.0 mi SE 1.2 mph - N/A   Clear
6:58 PM 52.5 °F - 32.7 °F 47% 30.13 in 10.0 mi Calm Calm - N/A   Clear
7:58 PM 48.2 °F - 35.6 °F 62% 30.14 in 10.0 mi Calm Calm - N/A   Clear